This is the latest recevied weather packets stored in our database for station/object K7FLA. If no packets are shown the sender has not sent any weather packets the latest 10 day(s).
| Time | Temp. | Humidity | Pressure | Rain* | Wind** | Luminosity | Snow |
|---|---|---|---|---|---|---|---|
| 1788447897 | 22.22° C | 44% | 1096.1 hPa | 0 mm | - | 184 W/m² | - |
| 1788447591 | 21.67° C | 47% | 1096 hPa | 0 mm | - | 170 W/m² | - |
| 1788447287 | 20.56° C | 48% | 1096.2 hPa | 0 mm | - | 167 W/m² | - |
| 1788446982 | 20.56° C | 49% | 1096 hPa | 0 mm | - | 143 W/m² | - |
| 1788446681 | 20° C | 50% | 1096.1 hPa | 0 mm | - | 128 W/m² | - |
| 1788446377 | 19.44° C | 50% | 1096 hPa | 0 mm | - | 115 W/m² | - |
| 1788446073 | 18.89° C | 50% | 1095.9 hPa | 0 mm | - | 103 W/m² | - |
| 1788445769 | 18.89° C | 51% | 1095.7 hPa | 0 mm | - | 89 W/m² | - |
| 1788445464 | 18.33° C | 52% | 1095.7 hPa | 0 mm | - | 78 W/m² | - |
| 1788445160 | 17.78° C | 57% | 1095.7 hPa | 0 mm | - | 68 W/m² | - |
| 1788444855 | 17.22° C | 59% | 1095.6 hPa | 0 mm | - | 59 W/m² | - |
| 1788444551 | 16.67° C | 61% | 1095.7 hPa | 0 mm | - | 51 W/m² | - |
| 1788444247 | 15.56° C | 62% | 1095.5 hPa | 0 mm | - | 43 W/m² | - |
| 1788443942 | 14.44° C | 65% | 1095.5 hPa | 0 mm | - | 35 W/m² | - |
| 1788443637 | 13.89° C | 65% | 1095.3 hPa | 0 mm | - | 28 W/m² | - |
| 1788443336 | 13.33° C | 64% | 1095.4 hPa | 0 mm | - | 17 W/m² | - |
| 1788443026 | 13.33° C | 63% | 1095.3 hPa | 0 mm | - | 15 W/m² | - |
| 1788442723 | 13.33° C | 60% | 1095.3 hPa | 0 mm | - | 12 W/m² | - |
| 1788442419 | 13.33° C | 60% | 1095.2 hPa | 0 mm | - | 9 W/m² | - |
| 1788442113 | 13.33° C | 60% | 1095.2 hPa | 0 mm | - | 6 W/m² | - |
| 1788441809 | 13.33° C | 62% | 1095.4 hPa | 0 mm | - | 3 W/m² | - |
| 1788441504 | 13.33° C | 63% | 1095.3 hPa | 0 mm | - | 2 W/m² | - |
| 1788441204 | 13.33° C | 66% | 1095.3 hPa | 0 mm | - | 1 W/m² | - |
| 1788440903 | 13.33° C | 67% | 1095.3 hPa | 0 mm | - | 0 W/m² | - |
| 1788440598 | 13.33° C | 65% | 1095.4 hPa | 0 mm | - | 0 W/m² | - |
* Rain latest hour (hover to see other rain measurements)
** Current wind speed in m/s (hover to see current wind gust speed)